Regional Weather Roundup
Issued by NWS

Home | Current Version | Previous Version | Graphics & Text | Print | Product List | Glossary On
Versions: 1 2 3 4 5 6 7 8 9 10 11 12 13 14 15 16 17 18 19 20 21 22 23 24 25 26 27 28 29 30 31 32 33 34 35 36 37 38 39 40 41 42 43 44 45 46 47 48 49 50
000
ASUS45 KCYS 270310
RWRWY

WYOMING REGIONAL WEATHER ROUNDUP
NATIONAL WEATHER SERVICE CHEYENNE WY
800 PM MST WED NOV 26 2014

NOTE:  "FAIR" INDICATES FEW OR NO CLOUDS BELOW 12,000 FEET
WITH NO SIGNIFICANT WEATHER AND/OR OBSTRUCTIONS TO VISIBILITY.

WYZ001-270400-
YELLOWSTONE NATIONAL PARK

CITY           SKY/WX    TMP DP  RH WIND       PRES   REMARKS
LK YELLOWSTONE   N/A     33  29  85 VRB5      30.28R WCI  29
W YELLOWSTONE  NOT AVBL

$$
WYZ002>013-054>058-071-098>099-270400-
NORTHERN WYOMING

CITY           SKY/WX    TMP DP  RH WIND       PRES   REMARKS
JACKSON        CLEAR     37  30  75 SW8       30.29S WCI  31
CODY           CLOUDY    21  21 100 NE5       30.13S VSB 1/4 WCI  15
GREYBULL       CLOUDY    24  24 100 SE6       30.20F WCI  17
WORLAND        FOG       18  16  92 CALM      30.20S VSB 1/2
SHERIDAN       CLOUDY    28  25  88 SW3       30.14F
BUFFALO        CLOUDY    26  21  81 S6        30.15R WCI  19
GILLETTE       CLOUDY    27  23  85 S9        30.18F WCI  18
HULETT           N/A    N/A N/A N/A MISG        N/A
NEWCASTLE      CLOUDY    28  27  93 SE6       30.23F WCI  22

$$
WYZ014>020-022>026-101>103-270400-
CENTRAL WYOMING

CITY           SKY/WX    TMP DP  RH WIND       PRES   REMARKS
BIG PINEY      PTCLDY   N/A N/A N/A NE5       30.34R
PINEDALE       PTCLDY    28  27  93 NW8       30.34S WCI  20
DUBOIS         FAIR      34  27  75 N21G29    30.22S WCI  22
LANDER         PTCLDY    36  26  67 W8        30.18R WCI  30
RIVERTON       PTCLDY    43  27  53 W8        30.17S
CASPER         PTCLDY    13  10  88 NW3       30.18S
DOUGLAS        MOCLDY    22  20  92 SE6       30.20S WCI  14

$$
WYZ021-027>030-104>119-270400-
SOUTHERN WYOMING

CITY           SKY/WX    TMP DP  RH WIND       PRES   REMARKS
EVANSTON       PTCLDY    35  24  64 SW12      30.39S WCI  27
FORT BRIDGER   FAIR      38  27  63 W13G18    30.40S WCI  30
ROCK SPRINGS   CLEAR     35  26  69 SW5       30.36R WCI  31
DIXON          FAIR      38  27  62 NW3       30.39R
RAWLINS        PTCLDY    38  27  64 SW15G26   30.30R WCI  29
SARATOGA       FAIR      37  28  70 W13G20    30.32R WCI  29
LARAMIE        CLEAR     39  25  57 W21G31    30.23R WCI  29
CHEYENNE       CLEAR     24  21  88 SW10      30.20S WCI  14
TORRINGTON     PTCLDY    22  21  96 E8        30.24S WCI  12
PINE BLUFFS    FAIR      19  19 100 CALM      30.25R

$$



USA.gov is the U.S. government's official web portal to all federal, state and local government web resources and services.